Year,Month,Day,Hour,Minute,Value (Times are PST for temperature in C)
2006,07,25,00,00,21.60
2006,07,25,00,01,21.60
2006,07,25,00,02,21.60
2006,07,25,00,03,21.60
2006,07,25,00,04,21.60
2006,07,25,00,05,21.60
2006,07,25,00,06,21.40
2006,07,25,00,07,21.40
2006,07,25,00,08,21.40
2006,07,25,00,09,21.40
2006,07,25,00,10,21.40
2006,07,25,00,11,21.30
2006,07,25,00,12,21.30
2006,07,25,00,13,21.30
2006,07,25,00,14,21.30
2006,07,25,00,15,21.30
2006,07,25,00,16,21.30
2006,07,25,00,17,21.30
2006,07,25,00,18,21.20
2006,07,25,00,19,21.20
2006,07,25,00,20,21.20
2006,07,25,00,21,21.20
2006,07,25,00,22,21.10
2006,07,25,00,23,21.10
2006,07,25,00,24,21.10
2006,07,25,00,25,21.10
2006,07,25,00,26,21.00
2006,07,25,00,27,21.00
2006,07,25,00,28,21.00
2006,07,25,00,29,21.00
2006,07,25,00,30,20.90
2006,07,25,00,31,20.90
2006,07,25,00,32,20.90
2006,07,25,00,33,20.90
2006,07,25,00,34,20.80
2006,07,25,00,35,20.80
2006,07,25,00,36,20.80
2006,07,25,00,37,20.80
2006,07,25,00,38,20.70
2006,07,25,00,39,20.70
2006,07,25,00,40,20.70
2006,07,25,00,41,20.70
2006,07,25,00,42,20.60
2006,07,25,00,43,20.60
2006,07,25,00,44,20.60
2006,07,25,00,45,20.60
2006,07,25,00,46,20.60
2006,07,25,00,47,20.60
2006,07,25,00,48,20.50
2006,07,25,00,49,20.50
2006,07,25,00,50,20.50
2006,07,25,00,51,20.50
2006,07,25,00,52,20.50
2006,07,25,00,53,20.40
2006,07,25,00,54,20.40
2006,07,25,00,55,20.40
2006,07,25,00,56,20.40
2006,07,25,00,57,20.40
2006,07,25,00,58,20.30
2006,07,25,00,59,20.30
2006,07,25,01,00,20.30
2006,07,25,01,01,20.30
2006,07,25,01,02,20.20
2006,07,25,01,03,20.20
2006,07,25,01,04,20.20
2006,07,25,01,05,20.20
2006,07,25,01,06,20.20
2006,07,25,01,07,20.20
2006,07,25,01,08,20.20
2006,07,25,01,09,20.20
2006,07,25,01,10,20.20
2006,07,25,01,11,20.20
2006,07,25,01,12,20.20
2006,07,25,01,13,20.20
2006,07,25,01,14,20.20
2006,07,25,01,15,20.20
2006,07,25,01,16,20.10
2006,07,25,01,17,20.10
2006,07,25,01,18,20.10
2006,07,25,01,19,20.10
2006,07,25,01,20,20.10
2006,07,25,01,21,20.10
2006,07,25,01,22,20.10
2006,07,25,01,23,20.10
2006,07,25,01,24,20.10
2006,07,25,01,25,20.10
2006,07,25,01,26,20.10
2006,07,25,01,27,20.20
2006,07,25,01,28,20.20
2006,07,25,01,29,20.20
2006,07,25,01,30,20.20
2006,07,25,01,31,20.20
2006,07,25,01,32,20.20
2006,07,25,01,33,20.20
2006,07,25,01,34,20.20
2006,07,25,01,35,20.20
2006,07,25,01,36,20.10
2006,07,25,01,37,20.10
2006,07,25,01,38,20.10
2006,07,25,01,39,20.10
2006,07,25,01,40,20.10
2006,07,25,01,41,20.10
2006,07,25,01,42,20.10
2006,07,25,01,43,20.00
2006,07,25,01,44,19.90
2006,07,25,01,45,19.90
2006,07,25,01,46,19.90
2006,07,25,01,47,19.90
2006,07,25,01,48,19.90
2006,07,25,01,49,19.90
2006,07,25,01,50,19.80
2006,07,25,01,51,19.80
2006,07,25,01,52,19.80
2006,07,25,01,53,19.80
2006,07,25,01,54,19.70
2006,07,25,01,55,19.70
2006,07,25,01,56,19.70
2006,07,25,01,57,19.70
2006,07,25,01,58,19.70
2006,07,25,01,59,19.70
2006,07,25,02,00,19.70
2006,07,25,02,01,19.60
2006,07,25,02,02,19.60
2006,07,25,02,03,19.60
2006,07,25,02,04,19.60
2006,07,25,02,05,19.60
2006,07,25,02,06,19.50
2006,07,25,02,07,19.50
2006,07,25,02,08,19.50
2006,07,25,02,09,19.50
2006,07,25,02,10,19.50
2006,07,25,02,11,19.50
2006,07,25,02,12,19.50
2006,07,25,02,13,19.50
2006,07,25,02,14,19.40
2006,07,25,02,15,19.40
2006,07,25,02,16,19.40
2006,07,25,02,17,19.30
2006,07,25,02,18,19.30
2006,07,25,02,19,19.30
2006,07,25,02,20,19.20
2006,07,25,02,21,19.20
2006,07,25,02,22,19.20
2006,07,25,02,23,19.10
2006,07,25,02,24,19.10
2006,07,25,02,25,19.10
2006,07,25,02,26,19.20
2006,07,25,02,27,19.20
2006,07,25,02,28,19.20
2006,07,25,02,29,19.20
2006,07,25,02,30,19.20
2006,07,25,02,31,19.20
2006,07,25,02,32,19.20
2006,07,25,02,33,19.20
2006,07,25,02,34,19.20
2006,07,25,02,35,19.20
2006,07,25,02,36,19.20
2006,07,25,02,37,19.20
2006,07,25,02,38,19.20
2006,07,25,02,39,19.20
2006,07,25,02,40,19.20
2006,07,25,02,41,19.20
2006,07,25,02,42,19.10
2006,07,25,02,43,19.10
2006,07,25,02,44,19.10
2006,07,25,02,45,19.10
2006,07,25,02,46,19.10
2006,07,25,02,47,19.10
2006,07,25,02,48,19.10
2006,07,25,02,49,19.10
2006,07,25,02,50,19.10
2006,07,25,02,51,19.10
2006,07,25,02,52,19.10
2006,07,25,02,53,19.10
2006,07,25,02,54,19.10
2006,07,25,02,55,19.10
2006,07,25,02,56,19.10
2006,07,25,02,57,19.00
2006,07,25,02,58,18.90
2006,07,25,02,59,18.90
2006,07,25,03,00,18.90
2006,07,25,03,01,18.90
2006,07,25,03,02,18.90
2006,07,25,03,03,18.90
2006,07,25,03,04,18.90
2006,07,25,03,05,18.90
2006,07,25,03,06,18.80
2006,07,25,03,07,18.80
2006,07,25,03,08,18.80
2006,07,25,03,09,18.80
2006,07,25,03,10,18.70
2006,07,25,03,11,18.70
2006,07,25,03,12,18.70
2006,07,25,03,13,18.70
2006,07,25,03,14,18.70
2006,07,25,03,15,18.60
2006,07,25,03,16,18.60
2006,07,25,03,17,18.60
2006,07,25,03,18,18.60
2006,07,25,03,19,18.60
2006,07,25,03,20,18.60
2006,07,25,03,21,18.50
2006,07,25,03,22,18.50
2006,07,25,03,23,18.50
2006,07,25,03,24,18.50
2006,07,25,03,25,18.50
2006,07,25,03,26,18.50
2006,07,25,03,27,18.50
2006,07,25,03,28,18.50
2006,07,25,03,29,18.50
2006,07,25,03,30,18.40
2006,07,25,03,31,18.40
2006,07,25,03,32,18.40
2006,07,25,03,33,18.40
2006,07,25,03,34,18.40
2006,07,25,03,35,18.40
2006,07,25,03,36,18.40
2006,07,25,03,37,18.40
2006,07,25,03,38,18.40
2006,07,25,03,39,18.40
2006,07,25,03,40,18.40
2006,07,25,03,41,18.30
2006,07,25,03,42,18.30
2006,07,25,03,43,18.30
2006,07,25,03,44,18.30
2006,07,25,03,45,18.30
2006,07,25,03,46,18.30
2006,07,25,03,47,18.20
2006,07,25,03,48,18.20
2006,07,25,03,49,18.20
2006,07,25,03,50,18.20
2006,07,25,03,51,18.20
2006,07,25,03,52,18.20
2006,07,25,03,53,18.20
2006,07,25,03,54,18.10
2006,07,25,03,55,18.10
2006,07,25,03,56,18.10
2006,07,25,03,57,18.10
2006,07,25,03,58,18.10
2006,07,25,03,59,18.00
2006,07,25,04,00,17.90
2006,07,25,04,01,17.90
2006,07,25,04,02,17.90
2006,07,25,04,03,17.90
2006,07,25,04,04,17.90
2006,07,25,04,05,17.90
2006,07,25,04,06,17.90
2006,07,25,04,07,17.90
2006,07,25,04,08,17.80
2006,07,25,04,09,17.80
2006,07,25,04,10,17.80
2006,07,25,04,11,17.80
2006,07,25,04,12,17.80
2006,07,25,04,13,17.70
2006,07,25,04,14,17.70
2006,07,25,04,15,17.70
2006,07,25,04,16,17.70
2006,07,25,04,17,17.60
2006,07,25,04,18,17.60
2006,07,25,04,19,17.60
2006,07,25,04,20,17.60
2006,07,25,04,21,17.50
2006,07,25,04,22,17.50
2006,07,25,04,23,17.50
2006,07,25,04,24,17.40
2006,07,25,04,25,17.40
2006,07,25,04,26,17.40
2006,07,25,04,27,17.30
2006,07,25,04,28,17.30
2006,07,25,04,29,17.30
2006,07,25,04,30,17.30
2006,07,25,04,31,17.20
2006,07,25,04,32,17.20
2006,07,25,04,33,17.10
2006,07,25,04,34,17.10
2006,07,25,04,35,17.00
2006,07,25,04,36,17.00
2006,07,25,04,37,16.90
2006,07,25,04,38,16.90
2006,07,25,04,39,16.80
2006,07,25,04,40,16.80
2006,07,25,04,41,16.70
2006,07,25,04,42,16.70
2006,07,25,04,43,16.70
2006,07,25,04,44,16.60
2006,07,25,04,45,16.60
2006,07,25,04,46,16.50
2006,07,25,04,47,16.40
2006,07,25,04,48,16.40
2006,07,25,04,49,16.40
2006,07,25,04,50,16.30
2006,07,25,04,51,16.30
2006,07,25,04,52,16.20
2006,07,25,04,53,16.20
2006,07,25,04,54,16.10
2006,07,25,04,55,16.10
2006,07,25,04,56,16.10
2006,07,25,04,57,16.10
2006,07,25,04,58,16.00
2006,07,25,04,59,15.90
2006,07,25,05,00,15.90
2006,07,25,05,01,15.80
2006,07,25,05,02,15.80
2006,07,25,05,03,15.80
2006,07,25,05,04,15.80
2006,07,25,05,05,15.70
2006,07,25,05,06,15.70
2006,07,25,05,07,15.70
2006,07,25,05,08,15.60
2006,07,25,05,09,15.60
2006,07,25,05,10,15.60
2006,07,25,05,11,15.60
2006,07,25,05,12,15.50
2006,07,25,05,13,15.50
2006,07,25,05,14,15.50
2006,07,25,05,15,15.50
2006,07,25,05,16,15.50
2006,07,25,05,17,15.40
2006,07,25,05,18,15.40
2006,07,25,05,19,15.40
2006,07,25,05,20,15.40
2006,07,25,05,21,15.40
2006,07,25,05,22,15.40
2006,07,25,05,23,15.40
2006,07,25,05,24,15.40
2006,07,25,05,25,15.30
2006,07,25,05,26,15.30
2006,07,25,05,27,15.30
2006,07,25,05,28,15.30
2006,07,25,05,29,15.30
2006,07,25,05,30,15.30
2006,07,25,05,31,15.30
2006,07,25,05,32,15.30
2006,07,25,05,33,15.30
2006,07,25,05,34,15.30
2006,07,25,05,35,15.30
2006,07,25,05,36,15.30
2006,07,25,05,37,15.30
2006,07,25,05,38,15.30
2006,07,25,05,39,15.30
2006,07,25,05,40,15.30
2006,07,25,05,41,15.30
2006,07,25,05,42,15.30
2006,07,25,05,43,15.30
2006,07,25,05,44,15.30
2006,07,25,05,45,15.30
2006,07,25,05,46,15.30
2006,07,25,05,47,15.30
2006,07,25,05,48,15.30
2006,07,25,05,49,15.30
2006,07,25,05,50,15.30
2006,07,25,05,51,15.30
2006,07,25,05,52,15.30
2006,07,25,05,53,15.30
2006,07,25,05,54,15.30
2006,07,25,05,55,15.30
2006,07,25,05,56,15.30
2006,07,25,05,57,15.30
2006,07,25,05,58,15.30
2006,07,25,05,59,15.30
2006,07,25,06,00,15.30
2006,07,25,06,01,15.30
2006,07,25,06,02,15.30
2006,07,25,06,03,15.30
2006,07,25,06,04,15.30
2006,07,25,06,05,15.30
2006,07,25,06,06,15.30
2006,07,25,06,07,15.30
2006,07,25,06,08,15.30
2006,07,25,06,09,15.30
2006,07,25,06,10,15.30
2006,07,25,06,11,15.30
2006,07,25,06,12,15.30
2006,07,25,06,13,15.30
2006,07,25,06,14,15.30
2006,07,25,06,15,15.30
2006,07,25,06,16,15.30
2006,07,25,06,17,15.30
2006,07,25,06,18,15.30
2006,07,25,06,19,15.30
2006,07,25,06,20,15.30
2006,07,25,06,21,15.30
2006,07,25,06,22,15.30
2006,07,25,06,23,15.30
2006,07,25,06,24,15.30
2006,07,25,06,25,15.30
2006,07,25,06,26,15.30
2006,07,25,06,27,15.30
2006,07,25,06,28,15.30
2006,07,25,06,29,15.30
2006,07,25,06,30,15.30
2006,07,25,06,31,15.30
2006,07,25,06,32,15.30
2006,07,25,06,33,15.30
2006,07,25,06,34,15.30
2006,07,25,06,35,15.30
2006,07,25,06,36,15.30
2006,07,25,06,37,15.30
2006,07,25,06,38,15.30
2006,07,25,06,39,15.30
2006,07,25,06,40,15.30
2006,07,25,06,41,15.30
2006,07,25,06,42,15.30
2006,07,25,06,43,15.30
2006,07,25,06,44,15.30
2006,07,25,06,45,15.30
2006,07,25,06,46,15.30
2006,07,25,06,47,15.30
2006,07,25,06,48,15.30
2006,07,25,06,49,15.30
2006,07,25,06,50,15.30
2006,07,25,06,51,15.30
2006,07,25,06,52,15.30
2006,07,25,06,53,15.40
2006,07,25,06,54,15.40
2006,07,25,06,55,15.40
2006,07,25,06,56,15.40
2006,07,25,06,57,15.40
2006,07,25,06,58,15.50
2006,07,25,06,59,15.50
2006,07,25,07,00,15.50
2006,07,25,07,01,15.60
2006,07,25,07,02,15.60
2006,07,25,07,03,15.60
2006,07,25,07,04,15.70
2006,07,25,07,05,15.70
2006,07,25,07,06,15.80
2006,07,25,07,07,15.80
2006,07,25,07,08,15.80
2006,07,25,07,09,15.90
2006,07,25,07,10,15.90
2006,07,25,07,11,16.00
2006,07,25,07,12,16.10
2006,07,25,07,13,16.10
2006,07,25,07,14,16.10
2006,07,25,07,15,16.10
2006,07,25,07,16,16.10
2006,07,25,07,17,16.10
2006,07,25,07,18,16.20
2006,07,25,07,19,16.20
2006,07,25,07,20,16.20
2006,07,25,07,21,16.30
2006,07,25,07,22,16.30
2006,07,25,07,23,16.30
2006,07,25,07,24,16.30
2006,07,25,07,25,16.40
2006,07,25,07,26,16.40
2006,07,25,07,27,16.40
2006,07,25,07,28,16.40
2006,07,25,07,29,16.40
2006,07,25,07,30,16.40
2006,07,25,07,31,16.40
2006,07,25,07,32,16.40
2006,07,25,07,33,16.40
2006,07,25,07,34,16.50
2006,07,25,07,35,16.60
2006,07,25,07,36,16.60
2006,07,25,07,37,16.60
2006,07,25,07,38,16.70
2006,07,25,07,39,16.70
2006,07,25,07,40,16.70
2006,07,25,07,41,16.70
2006,07,25,07,42,16.70
2006,07,25,07,43,16.80
2006,07,25,07,44,16.90
2006,07,25,07,45,16.90
2006,07,25,07,46,17.00
2006,07,25,07,47,17.00
2006,07,25,07,48,17.10
2006,07,25,07,49,17.10
2006,07,25,07,50,17.20
2006,07,25,07,51,17.30
2006,07,25,07,52,17.30
2006,07,25,07,53,17.30
2006,07,25,07,54,17.40
2006,07,25,07,55,17.40
2006,07,25,07,56,17.50
2006,07,25,07,57,17.60
2006,07,25,07,58,17.60
2006,07,25,07,59,17.70
2006,07,25,08,00,17.70
2006,07,25,08,01,17.80
2006,07,25,08,02,17.80
2006,07,25,08,03,17.90
2006,07,25,08,04,17.90
2006,07,25,08,05,18.00
2006,07,25,08,06,18.10
2006,07,25,08,07,18.10
2006,07,25,08,08,18.20
2006,07,25,08,09,18.20
2006,07,25,08,10,18.20
2006,07,25,08,11,18.30
2006,07,25,08,12,18.30
2006,07,25,08,13,18.40
2006,07,25,08,14,18.40
2006,07,25,08,15,18.50
2006,07,25,08,16,18.50
2006,07,25,08,17,18.60
2006,07,25,08,18,18.60
2006,07,25,08,19,18.70
2006,07,25,08,20,18.70
2006,07,25,08,21,18.80
2006,07,25,08,22,18.90
2006,07,25,08,23,18.90
2006,07,25,08,24,18.90
2006,07,25,08,25,19.00
2006,07,25,08,26,19.10
2006,07,25,08,27,19.10
2006,07,25,08,28,19.10
2006,07,25,08,29,19.10
2006,07,25,08,30,19.10
2006,07,25,08,31,19.10
2006,07,25,08,32,19.10
2006,07,25,08,33,19.20
2006,07,25,08,34,19.20
2006,07,25,08,35,19.20
2006,07,25,08,36,19.30
2006,07,25,08,37,19.30
2006,07,25,08,38,19.30
2006,07,25,08,39,19.30
2006,07,25,08,40,19.30
2006,07,25,08,41,19.30
2006,07,25,08,42,19.30
2006,07,25,08,43,19.30
2006,07,25,08,44,19.40
2006,07,25,08,45,19.40
2006,07,25,08,46,19.40
2006,07,25,08,47,19.40
2006,07,25,08,48,19.50
2006,07,25,08,49,19.50
2006,07,25,08,50,19.60
2006,07,25,08,51,19.60
2006,07,25,08,52,19.70
2006,07,25,08,53,19.70
2006,07,25,08,54,19.80
2006,07,25,08,55,19.80
2006,07,25,08,56,19.90
2006,07,25,08,57,19.90
2006,07,25,08,58,19.90
2006,07,25,08,59,19.90
2006,07,25,09,00,20.00
2006,07,25,09,01,20.10
2006,07,25,09,02,20.10
2006,07,25,09,03,20.10
2006,07,25,09,04,20.10
2006,07,25,09,05,20.20
2006,07,25,09,06,20.20
2006,07,25,09,07,20.10
2006,07,25,09,08,20.10
2006,07,25,09,09,20.10
2006,07,25,09,10,20.00
2006,07,25,09,11,19.90
2006,07,25,09,12,19.90
2006,07,25,09,13,19.80
2006,07,25,09,14,19.70
2006,07,25,09,15,19.70
2006,07,25,09,16,19.60
2006,07,25,09,17,19.60
2006,07,25,09,18,19.60
2006,07,25,09,19,19.60
2006,07,25,09,20,19.60
2006,07,25,09,21,19.50
2006,07,25,09,22,19.50
2006,07,25,09,23,19.50
2006,07,25,09,24,19.50
2006,07,25,09,25,19.50
2006,07,25,09,26,19.40
2006,07,25,09,27,19.40
2006,07,25,09,28,19.30
2006,07,25,09,29,19.30
2006,07,25,09,30,19.30
2006,07,25,09,31,19.30
2006,07,25,09,32,19.30
2006,07,25,09,33,19.30
2006,07,25,09,34,19.30
2006,07,25,09,35,19.40
2006,07,25,09,36,19.40
2006,07,25,09,37,19.50
2006,07,25,09,38,19.50
2006,07,25,09,39,19.60
2006,07,25,09,40,19.60
2006,07,25,09,41,19.60
2006,07,25,09,42,19.70
2006,07,25,09,43,19.70
2006,07,25,09,44,19.80
2006,07,25,09,45,19.90
2006,07,25,09,46,19.90
2006,07,25,09,47,20.00
2006,07,25,09,48,20.10
2006,07,25,09,49,20.20
2006,07,25,09,50,20.20
2006,07,25,09,51,20.20
2006,07,25,09,52,20.30
2006,07,25,09,53,20.30
2006,07,25,09,54,20.40
2006,07,25,09,55,20.40
2006,07,25,09,56,20.50
2006,07,25,09,57,20.60
2006,07,25,09,58,20.60
2006,07,25,09,59,20.60
2006,07,25,10,00,20.70
2006,07,25,10,01,20.70
2006,07,25,10,02,20.80
2006,07,25,10,03,20.80
2006,07,25,10,04,20.90
2006,07,25,10,05,21.00
2006,07,25,10,06,21.00
2006,07,25,10,07,21.10
2006,07,25,10,08,21.10
2006,07,25,10,09,21.10
2006,07,25,10,10,21.10
2006,07,25,10,11,21.10
2006,07,25,10,12,21.10
2006,07,25,10,13,21.00
2006,07,25,10,14,21.00
2006,07,25,10,15,21.00
2006,07,25,10,16,21.00
2006,07,25,10,17,21.00
2006,07,25,10,18,21.10
2006,07,25,10,19,21.10
2006,07,25,10,20,21.20
2006,07,25,10,21,21.30
2006,07,25,10,22,21.30
2006,07,25,10,23,21.30
2006,07,25,10,24,21.30
2006,07,25,10,25,21.30
2006,07,25,10,26,21.30
2006,07,25,10,27,21.30
2006,07,25,10,28,21.40
2006,07,25,10,29,21.40
2006,07,25,10,30,21.40
2006,07,25,10,31,21.60
2006,07,25,10,32,21.60
2006,07,25,10,33,21.60
2006,07,25,10,34,21.60
2006,07,25,10,35,21.60
2006,07,25,10,36,21.60
2006,07,25,10,37,21.60
2006,07,25,10,38,21.70
2006,07,25,10,39,21.70
2006,07,25,10,40,21.70
2006,07,25,10,41,21.70
2006,07,25,10,42,21.70
2006,07,25,10,43,21.70
2006,07,25,10,44,21.70
2006,07,25,10,45,21.70
2006,07,25,10,46,21.80
2006,07,25,10,47,21.90
2006,07,25,10,48,21.90
2006,07,25,10,49,21.90
2006,07,25,10,50,21.90
2006,07,25,10,51,21.90
2006,07,25,10,52,21.80
2006,07,25,10,53,21.80
2006,07,25,10,54,21.80
2006,07,25,10,55,21.80
2006,07,25,10,56,21.80
2006,07,25,10,57,21.80
2006,07,25,10,58,21.90
2006,07,25,10,59,22.00
2006,07,25,11,00,22.00
2006,07,25,11,01,22.00
2006,07,25,11,02,21.90
2006,07,25,11,03,21.70
2006,07,25,11,04,21.50
2006,07,25,11,05,21.40
2006,07,25,11,06,21.20
2006,07,25,11,07,21.10
2006,07,25,11,08,21.00
2006,07,25,11,09,21.00
2006,07,25,11,10,21.00
2006,07,25,11,11,21.00
2006,07,25,11,12,21.00
2006,07,25,11,13,21.10
2006,07,25,11,14,21.20
2006,07,25,11,15,21.30
2006,07,25,11,16,21.50
2006,07,25,11,17,21.60
2006,07,25,11,18,21.60
2006,07,25,11,19,21.60
2006,07,25,11,20,21.60
2006,07,25,11,21,21.60
2006,07,25,11,22,21.60
2006,07,25,11,23,21.70
2006,07,25,11,24,21.70
2006,07,25,11,25,21.70
2006,07,25,11,26,21.60
2006,07,25,11,27,21.60
2006,07,25,11,28,21.50
2006,07,25,11,29,21.40
2006,07,25,11,30,21.30
2006,07,25,11,31,21.30
2006,07,25,11,32,21.20
2006,07,25,11,33,21.20
2006,07,25,11,34,21.20
2006,07,25,11,35,21.20
2006,07,25,11,36,21.20
2006,07,25,11,37,21.30
2006,07,25,11,38,21.20
2006,07,25,11,39,21.10
2006,07,25,11,40,21.00
2006,07,25,11,41,20.80
2006,07,25,11,42,20.80
2006,07,25,11,43,20.70
2006,07,25,11,44,20.70
2006,07,25,11,45,20.80
2006,07,25,11,46,20.80
2006,07,25,11,47,20.90
2006,07,25,11,48,21.00
2006,07,25,11,49,21.10
2006,07,25,11,50,21.20
2006,07,25,11,51,21.10
2006,07,25,11,52,21.10
2006,07,25,11,53,21.10
2006,07,25,11,54,21.10
2006,07,25,11,55,21.10
2006,07,25,11,56,21.10
2006,07,25,11,57,21.10
2006,07,25,11,58,21.10
2006,07,25,11,59,21.10
2006,07,25,12,00,21.10
2006,07,25,12,01,21.10
2006,07,25,12,02,21.10
2006,07,25,12,03,21.10
2006,07,25,12,04,21.10
2006,07,25,12,05,21.20
2006,07,25,12,06,21.20
2006,07,25,12,07,21.20
2006,07,25,12,08,21.10
2006,07,25,12,09,21.10
2006,07,25,12,10,21.10
2006,07,25,12,11,21.20
2006,07,25,12,12,21.20
2006,07,25,12,13,21.30
2006,07,25,12,14,21.30
2006,07,25,12,15,21.40
2006,07,25,12,16,21.50
2006,07,25,12,17,21.60
2006,07,25,12,18,21.60
2006,07,25,12,19,21.70
2006,07,25,12,20,21.70
2006,07,25,12,21,21.70
2006,07,25,12,22,21.70
2006,07,25,12,23,21.70
2006,07,25,12,24,21.70
2006,07,25,12,25,21.70
2006,07,25,12,26,21.70
2006,07,25,12,27,21.60
2006,07,25,12,28,21.60
2006,07,25,12,29,21.60
2006,07,25,12,30,21.60
2006,07,25,12,31,21.60
2006,07,25,12,32,21.70
2006,07,25,12,33,21.70
2006,07,25,12,34,21.80
2006,07,25,12,35,21.70
2006,07,25,12,36,21.70
2006,07,25,12,37,21.60
2006,07,25,12,38,21.60
2006,07,25,12,39,21.40
2006,07,25,12,40,21.50
2006,07,25,12,41,21.60
2006,07,25,12,42,21.60
2006,07,25,12,43,21.60
2006,07,25,12,44,21.60
2006,07,25,12,45,21.60
2006,07,25,12,46,21.70
2006,07,25,12,47,21.80
2006,07,25,12,48,21.90
2006,07,25,12,49,22.00
2006,07,25,12,50,22.00
2006,07,25,12,51,22.00
2006,07,25,12,52,22.10
2006,07,25,12,53,22.20
2006,07,25,12,54,22.30
2006,07,25,12,55,22.30
2006,07,25,12,56,22.40
2006,07,25,12,57,22.50
2006,07,25,12,58,22.60
2006,07,25,12,59,22.70
2006,07,25,13,00,22.70
2006,07,25,13,01,22.90
2006,07,25,13,02,22.90
2006,07,25,13,03,22.90
2006,07,25,13,04,22.90
2006,07,25,13,05,23.10
2006,07,25,13,06,23.20
2006,07,25,13,07,23.30
2006,07,25,13,08,23.30
2006,07,25,13,09,23.40
2006,07,25,13,10,23.50
2006,07,25,13,11,23.60
2006,07,25,13,12,23.60
2006,07,25,13,13,23.50
2006,07,25,13,14,23.40
2006,07,25,13,15,23.30
2006,07,25,13,16,23.10
2006,07,25,13,17,23.00
2006,07,25,13,18,22.90
2006,07,25,13,19,22.80
2006,07,25,13,20,22.70
2006,07,25,13,21,22.60
2006,07,25,13,22,22.40
2006,07,25,13,23,22.40
2006,07,25,13,24,22.30
2006,07,25,13,25,22.10
2006,07,25,13,26,22.00
2006,07,25,13,27,22.00
2006,07,25,13,28,22.00
2006,07,25,13,29,21.90
2006,07,25,13,30,21.80
2006,07,25,13,31,21.70
2006,07,25,13,32,21.70
2006,07,25,13,33,21.70
2006,07,25,13,34,21.60
2006,07,25,13,35,21.60
2006,07,25,13,36,21.60
2006,07,25,13,37,21.60
2006,07,25,13,38,21.70
2006,07,25,13,39,21.80
2006,07,25,13,40,21.90
2006,07,25,13,41,21.90
2006,07,25,13,42,22.00
2006,07,25,13,43,22.10
2006,07,25,13,44,22.10
2006,07,25,13,45,22.20
2006,07,25,13,46,22.30
2006,07,25,13,47,22.50
2006,07,25,13,48,22.60
2006,07,25,13,49,22.70
2006,07,25,13,50,22.80
2006,07,25,13,51,22.90
2006,07,25,13,52,22.90
2006,07,25,13,53,22.90
2006,07,25,13,54,22.90
2006,07,25,13,55,22.90
2006,07,25,13,56,22.90
2006,07,25,13,57,22.90
2006,07,25,13,58,22.80
2006,07,25,13,59,22.90
2006,07,25,14,00,22.90
2006,07,25,14,01,23.00
2006,07,25,14,02,23.10
2006,07,25,14,03,23.20
2006,07,25,14,04,23.30
2006,07,25,14,05,23.40
2006,07,25,14,06,23.40
2006,07,25,14,07,23.40
2006,07,25,14,08,23.40
2006,07,25,14,09,23.50
2006,07,25,14,10,23.60
2006,07,25,14,11,23.60
2006,07,25,14,12,23.60
2006,07,25,14,13,23.60
2006,07,25,14,14,23.60
2006,07,25,14,15,23.40
2006,07,25,14,16,23.30
2006,07,25,14,17,23.30
2006,07,25,14,18,23.30
2006,07,25,14,19,23.30
2006,07,25,14,20,23.30
2006,07,25,14,21,23.30
2006,07,25,14,22,23.30
2006,07,25,14,23,23.40
2006,07,25,14,24,23.50
2006,07,25,14,25,23.60
2006,07,25,14,26,23.80
2006,07,25,14,27,23.90
2006,07,25,14,28,24.10
2006,07,25,14,29,24.20
2006,07,25,14,30,24.30
2006,07,25,14,31,24.40
2006,07,25,14,32,24.40
2006,07,25,14,33,24.50
2006,07,25,14,34,24.50
2006,07,25,14,35,24.60
2006,07,25,14,36,24.60
2006,07,25,14,37,24.60
2006,07,25,14,38,24.60
2006,07,25,14,39,24.70
2006,07,25,14,40,24.70
2006,07,25,14,41,24.70
2006,07,25,14,42,24.60
2006,07,25,14,43,24.50
2006,07,25,14,44,24.50
2006,07,25,14,45,24.50
2006,07,25,14,46,24.60
2006,07,25,14,47,24.70
2006,07,25,14,48,24.90
2006,07,25,14,49,24.90
2006,07,25,14,50,25.00
2006,07,25,14,51,25.00
2006,07,25,14,52,24.90
2006,07,25,14,53,24.70
2006,07,25,14,54,24.60
2006,07,25,14,55,24.50
2006,07,25,14,56,24.50
2006,07,25,14,57,24.50
2006,07,25,14,58,24.40
2006,07,25,14,59,24.50
2006,07,25,15,00,24.40
2006,07,25,15,01,24.50
2006,07,25,15,02,24.50
2006,07,25,15,03,24.70
2006,07,25,15,04,24.80
2006,07,25,15,05,24.90
2006,07,25,15,06,25.00
2006,07,25,15,07,25.10
2006,07,25,15,08,25.20
2006,07,25,15,09,25.30
2006,07,25,15,10,25.40
2006,07,25,15,11,25.40
2006,07,25,15,12,25.50
2006,07,25,15,13,25.60
2006,07,25,15,14,25.60
2006,07,25,15,15,25.60
2006,07,25,15,16,25.40
2006,07,25,15,17,25.30
2006,07,25,15,18,25.30
2006,07,25,15,19,25.20
2006,07,25,15,20,25.10
2006,07,25,15,21,25.10
2006,07,25,15,22,25.10
2006,07,25,15,23,25.10
2006,07,25,15,24,25.00
2006,07,25,15,25,25.10
2006,07,25,15,26,25.20
2006,07,25,15,27,25.30
2006,07,25,15,28,25.40
2006,07,25,15,29,25.50
2006,07,25,15,30,25.60
2006,07,25,15,31,25.60
2006,07,25,15,32,25.80
2006,07,25,15,33,25.80
2006,07,25,15,34,25.70
2006,07,25,15,35,25.70
2006,07,25,15,36,25.70
2006,07,25,15,37,25.70
2006,07,25,15,38,25.70
2006,07,25,15,39,25.70
2006,07,25,15,40,25.60
2006,07,25,15,41,25.50
2006,07,25,15,42,25.30
2006,07,25,15,43,25.00
2006,07,25,15,44,24.70
2006,07,25,15,45,24.50
2006,07,25,15,46,24.50
2006,07,25,15,47,24.50
2006,07,25,15,48,24.50
2006,07,25,15,49,24.40
2006,07,25,15,50,24.40
2006,07,25,15,51,24.50
2006,07,25,15,52,24.60
2006,07,25,15,53,24.70
2006,07,25,15,54,24.70
2006,07,25,15,55,24.60
2006,07,25,15,56,24.40
2006,07,25,15,57,24.10
2006,07,25,15,58,23.90
2006,07,25,15,59,23.70
2006,07,25,16,00,23.60
2006,07,25,16,01,23.50
2006,07,25,16,02,23.30
2006,07,25,16,03,23.30
2006,07,25,16,04,23.30
2006,07,25,16,05,23.30
2006,07,25,16,06,23.30
2006,07,25,16,07,23.20
2006,07,25,16,08,23.10
2006,07,25,16,09,23.00
2006,07,25,16,10,22.80
2006,07,25,16,11,22.60
2006,07,25,16,12,22.60
2006,07,25,16,13,22.60
2006,07,25,16,14,22.50
2006,07,25,16,15,22.60
2006,07,25,16,16,22.60
2006,07,25,16,17,22.60
2006,07,25,16,18,22.70
2006,07,25,16,19,22.80
2006,07,25,16,20,22.90
2006,07,25,16,21,23.10
2006,07,25,16,22,23.10
2006,07,25,16,23,22.90
2006,07,25,16,24,22.80
2006,07,25,16,25,22.80
2006,07,25,16,26,22.70
2006,07,25,16,27,22.80
2006,07,25,16,28,22.80
2006,07,25,16,29,22.70
2006,07,25,16,30,22.50
2006,07,25,16,31,22.30
2006,07,25,16,32,22.30
2006,07,25,16,33,22.30
2006,07,25,16,34,22.50
2006,07,25,16,35,22.60
2006,07,25,16,36,22.70
2006,07,25,16,37,22.90
2006,07,25,16,38,22.90
2006,07,25,16,39,22.90
2006,07,25,16,40,22.90
2006,07,25,16,41,22.90
2006,07,25,16,42,22.90
2006,07,25,16,43,23.00
2006,07,25,16,44,23.20
2006,07,25,16,45,23.30
2006,07,25,16,46,23.30
2006,07,25,16,47,23.30
2006,07,25,16,48,23.30
2006,07,25,16,49,23.40
2006,07,25,16,50,23.40
2006,07,25,16,51,23.50
2006,07,25,16,52,23.60
2006,07,25,16,53,23.60
2006,07,25,16,54,23.50
2006,07,25,16,55,23.40
2006,07,25,16,56,23.30
2006,07,25,16,57,23.10
2006,07,25,16,58,22.90
2006,07,25,16,59,22.90
2006,07,25,17,00,22.90
2006,07,25,17,01,22.90
2006,07,25,17,02,22.80
2006,07,25,17,03,22.80
2006,07,25,17,04,22.80
2006,07,25,17,05,22.90
2006,07,25,17,06,22.90
2006,07,25,17,07,23.10
2006,07,25,17,08,23.20
2006,07,25,17,09,23.30
2006,07,25,17,10,23.30
2006,07,25,17,11,23.30
2006,07,25,17,12,23.40
2006,07,25,17,13,23.40
2006,07,25,17,14,23.40
2006,07,25,17,15,23.30
2006,07,25,17,16,23.20
2006,07,25,17,17,23.00
2006,07,25,17,18,22.90
2006,07,25,17,19,22.70